www.pogodaiklimat.ru

Погода и климат >> Архив погоды >> Норвегия >> Vaeroy Heliport


ПОГОДА в Vaeroy Heliport

  • Прогноз погоды в Vaeroy Heliport
  • Монитор погоды в Vaeroy Heliport
  • Климат города

АРХИВ ПОГОДЫ в Vaeroy Heliport

Время (UTC), дата Ветер
(напр.,м/с)
 
Видим.   Явления Облачность Т
(С)
Тd
(С)
f
(%)
Тe
(С)
Тes
(С)
Комфортность P
(гПа)
Po
(гПа)
Тmin
(С)
Tmax
(С)
R
(мм)
R24
(мм)
S
(см)
17 20.06 ЮВ 1
{2}
н/о н/о +10.3 +7.3 82 +10 +10 1002.5 1002.1
16 20.06 ЮВ 1
{3}
н/о н/о +11.2 +7.9 80 +11 +11 1002.2 1001.7
18 20.06 С 3
{6}
н/о н/о +10.9 +5.6 70 +9 +9 1003.1 1002.6 +8.9 +11.4
19 20.06 С 3
{5}
н/о н/о +10.7 +6.9 77 +9 +9 1003.7 1003.2
20 20.06 С 3
{5}
н/о н/о +10.6 +6.4 75 +9 +9 1004.2 1003.7
21 20.06 СЗ 2
{4}
н/о н/о +9.9 +6.3 78 +8 +8 1004.6 1004.1
23 20.06 З 1
{4}
н/о н/о +9.1 +6.1 81 +9 +9 1005.4 1004.9
22 20.06 СЗ 1
{4}
н/о н/о +9.6 +6.2 79 +9 +9 1005.0 1004.6
00 21.06 З 2
{5}
н/о н/о +9.5 +6.5 82 +8 +8 1005.7 1005.2
01 21.06 штиль 0
{2}
н/о н/о +9.7 +6.7 82 +9 +9 1006.1 1005.6
02 21.06 СЗ 2
{3}
н/о н/о +9.9 +7.0 82 +8 +8 1006.4 1005.9
03 21.06 СЗ 3
{4}
н/о н/о +10.1 +7.4 83 +8 +8 1006.6 1006.1
05 21.06 С 2
{4}
н/о н/о +10.5 +7.5 82 +9 +9 1006.9 1006.4
04 21.06 СЗ 1
{4}
н/о н/о +10.3 +7.5 83 +10 +10 1006.7 1006.2
06 21.06 СЗ 3
{6}
н/о н/о +10.9 +7.8 81 +9 +9 1007.2 1006.7 +9.1 +10.9
07 21.06 С 3
{6}
н/о н/о +11.2 +7.8 80 +9 +9 1007.6 1007.1
08 21.06 С 4
{7}
н/о н/о +11.2 +7.5 78 +9 +9 1007.9 1007.4
09 21.06 С 5
{9}
н/о н/о +10.8 +5.9 72 +8 +8 1008.1 1007.6
11 21.06 СЗ 4
{7}
н/о н/о +11.6 +8.0 79 +9 +9 1008.5 1008.0
10 21.06 СЗ 5
{9}
н/о н/о +11.5 +7.6 77 +9 +9 1008.3 1007.9
12 21.06 СЗ 4
{9}
н/о н/о +11.5 +8.1 80 +9 +9 1008.9 1008.4
13 21.06 СЗ 5
{8}
н/о н/о +11.5 +7.9 79 +9 +9 1009.1 1008.6
14 21.06 СЗ 4
{10}
н/о н/о +11.4 +7.5 77 +9 +9 1009.1 1008.6
15 21.06 С 6
{11}
н/о н/о +11.0 +7.7 80 +8 +8 1009.1 1008.6
17 21.06 С 6
{12}
н/о н/о +10.0 +7.5 84 +7 +7 1009.4 1008.9
16 21.06 С 8
{13}
н/о н/о +10.4 +7.3 81 +7 +7 1009.4 1008.9
18 21.06 С 6
{13}
н/о н/о +9.6 +6.2 79 +6 +6 1009.3 1008.8 +9.5 +12.0
19 21.06 С 8
{13}
н/о н/о +9.4 +3.5 67 +5 +5 1009.5 1009.0
20 21.06 С 8
{13}
н/о н/о +9.2 +3.4 67 +5 +5 1009.6 1009.1
21 21.06 С 8
{12}
н/о н/о +8.8 +4.0 72 +5 +5 1009.9 1009.4
23 21.06 С 7
{10}
н/о н/о +8.3 +4.2 75 +4 +4 1010.3 1009.8
22 21.06 С 7
{13}
н/о н/о +8.6 +3.5 70 +5 +5 1010.2 1009.7
00 22.06 С 7
{13}
н/о н/о +8.4 +2.3 65 +4 +4 1010.3 1009.8
01 22.06 С 7
{12}
н/о н/о +8.1 +4.5 78 +4 +4 1010.3 1009.8
02 22.06 С 6
{11}
н/о н/о +8.0 +3.8 75 +4 +4 1010.4 1009.9
03 22.06 С 5
{10}
н/о н/о +8.4 +3.9 73 +5 +5 1010.4 1009.9
05 22.06 С 3
{7}
н/о н/о +8.8 +3.4 69 +7 +7 1010.4 1009.9
04 22.06 С 5
{10}
н/о н/о +8.3 +4.1 75 +5 +5 1010.6 1010.1
06 22.06 СВ 3
{12}
н/о н/о +9.1 +3.1 66 +7 +7 1010.4 1009.9 +7.9 +9.6
07 22.06 СВ 5
{8}
н/о н/о +9.3 +3.5 67 +6 +6 1010.4 1009.9
08 22.06 СВ 5
{7}
н/о н/о +9.2 +4.0 70 +6 +6 1010.4 1009.9
09 22.06 СВ 5
{7}
н/о н/о +9.3 +4.4 71 +6 +6 1010.4 1010.0
11 22.06 СВ 4
{6}
н/о н/о +9.5 +3.4 66 +7 +7 1010.4 1009.9
10 22.06 СВ 5
{6}
н/о н/о +9.4 +3.8 68 +6 +6 1010.3 1009.8
12 22.06 СВ 3
{8}
н/о н/о +9.9 +3.3 63 +8 +8 1010.5 1010.0
13 22.06 С 3
{4}
н/о н/о +10.3 +2.5 58 +9 +9 1010.4 1009.9
14 22.06 С 3
{4}
н/о н/о +10.1 +2.7 60 +8 +8 1010.3 1009.8
15 22.06
{4}
н/о н/о +10.0 +2.9 61 1010.3 1009.8
17 22.06 С 3
{5}
н/о н/о +10.3 +3.1 61 +8 +8 1009.6 1009.1
16 22.06 С 2 н/о н/о +10.5 +3.0 60 +9 +9 1010.0 1009.5
18 22.06 С 4
{5}
н/о н/о +10.2 +3.9 65 +8 +8 1009.5 1009.0 +8.9 +10.8
19 22.06 С 3
{5}
н/о н/о +10.2 +3.7 64 +8 +8 1009.2 1008.7
20 22.06 С 4
{5}
н/о н/о +9.8 +4.3 69 +7 +7 1009.0 1008.5
21 22.06 С 5
{6}
н/о н/о +9.6 +5.4 75 +6 +6 1008.9 1008.4
23 22.06 С 4
{6}
н/о н/о +9.5 +5.9 78 +7 +7 1008.4 1007.9
22 22.06 С 5 н/о н/о +9.5 +5.5 76 +6 +6 1008.6 1008.1
00 23.06 СВ 6
{7}
н/о н/о +9.3 +5.6 78 +6 +6 1008.4 1007.9
01 23.06 СВ 6
{6}
н/о н/о +9.3 +4.8 73 +6 +6 1008.3 1007.8
02 23.06 СВ 6
{7}
н/о н/о +9.3 +5.0 74 +6 +6 1008.2 1007.7
03 23.06 СВ 7
{7}
н/о н/о +9.6 +5.3 75 +6 +6 1007.8 1007.3
05 23.06 СВ 8
{9}
н/о н/о +9.7 +5.9 77 +6 +6 1007.1 1006.7
04 23.06 СВ 8
{9}
н/о н/о +9.5 +5.4 76 +5 +5 1007.4 1006.9
06 23.06 СВ 7
{9}
н/о н/о +10.0 +6.1 77 +6 +6 1007.1 1006.7 +9.1 +10.2
07 23.06 СВ 8
{9}
н/о н/о +10.2 +6.7 79 +6 +6 1007.0 1006.5
08 23.06 СВ 8
{9}
н/о н/о +10.4 +7.0 79 +7 +7 1006.7 1006.3
09 23.06 СВ 6
{8}
н/о н/о +10.7 +6.4 75 +8 +8 1006.5 1006.0
11 23.06 СВ 6
{7}
н/о н/о +11.2 +6.8 74 +8 +8 1006.1 1005.6
10 23.06 СВ 6
{7}
н/о н/о +11.0 +6.8 75 +8 +8 1006.4 1005.9
12 23.06 СВ 6
{9}
н/о н/о +11.4 +6.8 73 +9 +9 1005.7 1005.2
13 23.06 СВ 6
{7}
н/о н/о +11.7 +6.9 72 +9 +9 1005.3 1004.8
14 23.06 СВ 6
{7}
н/о н/о +11.8 +7.7 76 +9 +9 1004.9 1004.4
15 23.06 СВ 6
{7}
н/о н/о +11.8 +7.9 77 +9 +9 1004.4 1003.9
17 23.06 СВ 7
{8}
н/о н/о +11.9 +7.4 74 +9 +9 1003.0 1002.5
16 23.06 СВ 7
{7}
н/о н/о +12.0 +7.6 74 +9 +9 1003.7 1003.3
18 23.06 СВ 7
{9}
н/о н/о +12.2 +7.3 72 +9 +9 1002.3 1001.8 +10.0 +12.2
19 23.06 СВ 8
{9}
н/о н/о +11.9 +7.1 72 +9 +9 1001.7 1001.3
20 23.06 СВ 7
{9}
н/о н/о +12.0 +7.9 76 +9 +9 1001.1 1000.6
21 23.06 С 7
{9}
н/о н/о +11.6 +7.8 77 +8 +8 1000.4 999.9
23 23.06 С 9
{10}
н/о н/о +11.4 +8.4 82 +8 +8 999.2 998.7
22 23.06 С 8
{10}
н/о н/о +11.6 +8.1 79 +8 +8 999.7 999.2
00 24.06 СВ 9
{11}
н/о н/о +11.5 +8.3 81 +8 +8 998.7 998.3
01 24.06 СВ 9
{11}
н/о н/о +11.5 +8.0 79 +8 +8 998.2 997.7
02 24.06 СВ 10
{11}
н/о н/о +11.6 +7.5 76 +8 +8 997.7 997.2
03 24.06 СВ 10
{12}
н/о н/о +11.5 +7.6 77 +8 +8 997.3 996.8
05 24.06 СВ 9
{11}
н/о н/о +11.5 +7.9 79 +8 +8 996.3 995.8
04 24.06 СВ 10
{12}
н/о н/о +11.5 +7.7 77 +8 +8 996.8 996.3
06 24.06 СВ 8
{12}
н/о н/о +11.5 +8.3 81 +8 +8 996.1 995.7 +11.3 +12.2
07 24.06 СВ 8
{10}
н/о н/о +11.5 +8.5 82 +8 +8 995.8 995.3
08 24.06 СВ 7
{9}
н/о н/о +11.3 +9.0 86 +8 +8 995.7 995.2
09 24.06 С 6
{7}
н/о н/о +11.5 +9.2 86 +9 +9 995.6 995.1
11 24.06 В 4
{8}
н/о н/о +12.3 +9.7 84 +10 +10 995.5 995.0
10 24.06 СВ 6
{7}
н/о н/о +11.7 +9.8 88 +9 +9 995.3 994.9
12 24.06 ЮВ 2
{10}
н/о н/о +12.1 +10.2 88 +11 +11 995.6 995.1
13 24.06 ЮВ 1
{2}
н/о н/о +12.7 +10.9 89 +13 +13 995.6 995.1
14 24.06 ЮЗ 2
{3}
н/о н/о +12.1 +10.3 89 +11 +11 995.5 995.1
15 24.06 Ю 2
{3}
н/о н/о +11.4 +10.3 93 +10 +10 995.4 994.9
17 24.06 СВ 2
{3}
н/о н/о +10.8 +10.2 96 +9 +9 995.0 994.5
16 24.06 В 2
{2}
н/о н/о +11.3 +10.4 94 +10 +10 995.2 994.7
18 24.06 Ю 1
{3}
н/о н/о +11.0 +10.4 96 +11 +11 994.9 994.4 +10.8 +12.7
19 24.06 Ю 4
{5}
н/о н/о +11.0 +10.5 97 +8 +8 995.0 994.5
20 24.06 ЮЗ 5
{9}
н/о н/о +10.2 +9.7 97 +7 +7 995.2 994.7
21 24.06 ЮЗ 6
{7}
н/о н/о +10.2 +9.5 95 +7 +7 995.2 994.7
23 24.06 З 3
{6}
н/о н/о +9.9 +9.1 95 +8 +8 995.1 994.6
22 24.06 ЮЗ 4
{7}
н/о н/о +10.1 +9.4 95 +7 +7 995.2 994.7
00 25.06 ЮЗ 2
{9}
н/о н/о +10.0 +9.2 95 +8 +8 995.0 994.5
01 25.06 Ю 1
{2}
н/о н/о +9.9 +9.1 95 +9 +9 994.8 994.4
02 25.06 З 1
{1}
н/о н/о +10.0 +9.2 95 +9 +9 994.6 994.2
03 25.06 штиль 0
{1}
н/о н/о +10.0 +9.1 94 +9 +9 994.3 993.8
05 25.06 С 2
{3}
н/о н/о +10.3 +9.1 92 +9 +9 994.0 993.5
04 25.06 С 2
{2}
н/о н/о +10.1 +9.2 94 +8 +8 994.1 993.7
06 25.06 СВ 3
{4}
н/о н/о +10.3 +8.9 91 +8 +8 993.9 993.4 +9.9 +11.3
07 25.06
{5}
н/о н/о +10.0 +9.1 94 993.7 993.2
08 25.06 С 4
{6}
н/о н/о +9.8 +9.2 96 +7 +7 993.7 993.2
09 25.06 С 7
{8}
н/о н/о +9.5 +9.0 97 +5 +5 993.6 993.2
11 25.06 С 8
{10}
н/о н/о +9.7 +9.0 95 +5 +5 993.7 993.2
10 25.06 С 8
{10}
н/о н/о +9.6 +9.0 96 +5 +5 993.6 993.1
12 25.06 С 7
{10}
н/о н/о +9.9 +8.9 93 +6 +6 993.7 993.2
13 25.06 С 7
{8}
н/о н/о +10.3 +8.8 90 +7 +7 993.5 993.1
14 25.06
{8}
н/о н/о +10.3 +8.4 88 993.5 993.0
15 25.06 С 5
{8}
н/о н/о +10.3 +8.2 87 +7 +7 993.3 992.8
17 25.06 С 6
{8}
н/о н/о +10.1 +7.9 86 +7 +7 993.1 992.6
16 25.06 С 6
{8}
н/о н/о +10.1 +7.7 85 +7 +7 993.1 992.7
18 25.06 С 6
{8}
н/о н/о +9.7 +7.9 89 +6 +6 993.0 992.5 +9.4 +10.5
19 25.06 С 5
{9}
н/о н/о +9.4 +7.9 90 +6 +6 992.8 992.4
20 25.06 С 5
{9}
н/о н/о +9.5 +7.7 89 +6 +6 992.8 992.3
21 25.06 С 7
{11}
н/о н/о +9.3 +7.7 90 +5 +5 992.6 992.1
23 25.06 С 7
{11}
н/о н/о +9.4 +7.5 88 +5 +5 992.3 991.8
22 25.06 С 7
{11}
н/о н/о +9.2 +7.6 90 +5 +5 992.3 991.9
00 26.06 С 7
{11}
н/о н/о +9.5 +7.7 89 +5 +5 992.0 991.5
01 26.06 С 4
{9}
н/о н/о +9.3 +7.5 89 +6 +6 991.9 991.4
02 26.06 С 3
{7}
н/о н/о +9.6 +7.7 88 +7 +7 991.8 991.3
03 26.06 С 6
{9}
н/о н/о +9.9 +7.8 87 +6 +6 991.9 991.4
05 26.06 С 7
{10}
н/о н/о +9.9 +7.8 87 +6 +6 992.0 991.5
04 26.06 С 7
{10}
н/о н/о +9.8 +7.7 87 +6 +6 991.8 991.4
06 26.06 С 7
{11}
н/о н/о +10.0 +7.7 86 +6 +6 992.3 991.8 +9.2 +10.2
07 26.06 С 7
{12}
н/о н/о +9.8 +7.7 87 +6 +6 992.5 992.1
08 26.06 С 7
{12}
н/о н/о +10.5 +7.7 83 +7 +7 993.0 992.5
09 26.06 С 8
{11}
н/о н/о +10.8 +8.0 83 +7 +7 993.2 992.7
11 26.06 С 8
{12}
н/о н/о +10.6 +8.0 84 +7 +7 994.1 993.6
10 26.06 С 8
{13}
н/о н/о +10.5 +8.0 84 +7 +7 993.7 993.2
12 26.06 С 6
{13}
н/о н/о +10.3 +8.3 87 +7 +7 994.5 994.0
13 26.06 С 9
{16}
н/о н/о +9.7 +8.0 89 +5 +5 995.1 994.6
14 26.06 С 9
{15}
н/о н/о +9.8 +8.0 89 +5 +5 995.6 995.2
15 26.06 С 11
{17}
н/о н/о +9.5 +7.8 89 +5 +5 996.0 995.5
17 26.06 С 11
{18}
н/о н/о +9.3 +7.3 87 +4 +4 997.0 996.5
16 26.06 С 10
{20}
н/о н/о +9.1 +7.7 91 +4 +4 996.5 996.0
18 26.06 С 11
{20}
н/о н/о +9.0 +6.8 86 +4 +4 997.5 997.0 +8.9 +11.1
19 26.06 С 11
{20}
н/о н/о +8.7 +6.5 86 +3 +3 997.8 997.3
20 26.06 С 11
{20}
н/о н/о +8.6 +6.4 86 +3 +3 998.3 997.8
21 26.06 С 11
{18}
н/о н/о +8.5 +6.3 86 +3 +3 998.9 998.5
23 26.06 С 10
{18}
н/о н/о +8.1 +5.5 84 +3 +3 999.8 999.3
22 26.06 С 10
{19}
н/о н/о +8.4 +5.7 83 +3 +3 999.4 998.9
00 27.06 С 10
{20}
н/о н/о +7.9 +5.0 82 +3 +3 1000.5 1000.0
01 27.06 С 10
{20}
н/о н/о +7.8 +5.3 84 +2 +2 1001.0 1000.6
02 27.06 С 9
{18}
н/о н/о +7.6 +5.3 85 +2 +2 1001.7 1001.2
03 27.06 СЗ 7
{15}
н/о н/о +7.9 +5.1 82 +3 +3 1002.4 1001.9
05 27.06 СЗ 7
{14}
н/о н/о +7.4 +5.1 85 +3 +3 1003.8 1003.3
04 27.06 СЗ 8
{16}
н/о н/о +7.7 +5.3 85 +3 +3 1003.0 1002.5
06 27.06 СЗ 8
{20}
н/о н/о +7.4 +4.9 84 +2 +2 1004.5 1004.0 +7.3 +9.0
07 27.06 СЗ 7
{14}
н/о н/о +7.5 +5.2 85 +3 +3 1005.0 1004.5
08 27.06 СЗ 7
{13}
н/о н/о +7.5 +4.6 82 +3 +3 1005.7 1005.2
09 27.06 С 7
{14}
н/о н/о +8.1 +4.1 76 +4 +4 1006.2 1005.7
11 27.06 СЗ 5
{11}
н/о н/о +7.9 +4.3 78 +4 +4 1007.3 1006.8
10 27.06 С 5
{13}
н/о н/о +8.1 +4.4 77 +4 +4 1006.7 1006.3
12 27.06 СЗ 3
{14}
н/о н/о +8.5 +3.6 71 +6 +6 1008.0 1007.5
13 27.06 СЗ 4
{8}
н/о н/о +9.2 +3.0 65 +7 +7 1008.4 1007.9
14 27.06 СЗ 5
{9}
н/о н/о +8.5 +3.7 72 +5 +5 1009.0 1008.5
15 27.06 СЗ 5
{8}
н/о н/о +8.9 +3.1 67 +6 +6 1009.3 1008.9
16 27.06 СЗ 4
{8}
н/о н/о +8.2 +3.4 72 +5 +5 1009.6 1009.1

 

Местоположение метеостанции Vaeroy Heliport (Норвегия): широта 67.65 долгота 12.72 высота над уровнем моря 4 м.

В архиве по умолчанию представлена погода в Vaeroy Heliport за последнюю неделю. Архивные данные за месяц целиком и за предыдущие месяцы, начиная с января 2011 года, Вы можете получить, выбрав интересующий диапазон дат из раскрывающегося списка и нажав кнопку "Ввод!".

Внимание! Время в таблицах - всемирное. Для получения местного времени необходимо прибавить поправку, которая в Vaeroy Heliport равна 1 ч.

Смотрите также архив погоды в соседних городах и на ближайших метеорологических станциях:

Погода в Rost Flyplass (Норвегия) (30 км)
Погода в Helligvaer II (Норвегия) (57 км)
Погода в Leknes (Норвегия) (68 км)
Погода в Bodo VI (Норвегия) (82 км)
Погода в Reipa (Норвегия) (92 км)
Погода в Skrova Fyr (Норвегия) (98 км)
Погода в Myken (Норвегия) (98 км)
Погода в Svolvaer Lufthavn (Норвегия) (105 км)
Погода в Bo i Vesteralen (Норвегия) (128 км)
Погода в Setsa (Норвегия) (130 км)

Пояснения к столбцам:

Ветер - указаны скорость ветра в м/с - средняя за 10 мин, порывы в срок и между сроками (в фигурных скобках) и направление, откуда дует ветер: С - северный, СВ - северо-восточный, В - восточный, ЮВ - юго-восточный, Ю - южный, ЮЗ - юго-западный, З - западный, СЗ - северо-западный.
Видимость - горизонтальная дальность видимости в метрах или километрах. При видимости от 1 до 10 км при отсутствии осадков обычно наблюдается дымка, при ухудшении видимости до 1 км и менее - туман. В сухую погоду видимость может ухудшаться дымом, пылью или мглою.
Явления - указаны атмосферные явления, наблюдавшиеся в срок или в последний час перед сроком; фигурными скобками обозначены явления, наблюдавшиеся между сроками (за 1-3 часа до срока); квадратными скобками обозначены град или гололедные отложения с указанием их диаметра в мм.
Облачность - указаны через наклонную черту общая и нижняя облачность в баллах и высота нижней границы облаков в метрах; квадратными скобками обозначены формы облаков: Ci - перистые, Cs - перисто-слоистые, Cc - перисто-кучевые, Ac - высококучевые, As - высокослоистые, Sc - слоисто-кучевые, Ns - слоисто-дождевые, Cu - кучевые, Cb - кучево-дождевые. Подробнее классификацию облаков см. в Атласе облаков (PDF).
T - Температура воздуха - температура, измеренная на высоте 2 м над землей.
Td - Температура точки росы - температура, при понижении до которой содержащийся в воздухе водяной пар достигнет насыщения.
f - Относительная влажность воздуха - влажноcть воздуха, измеренная на высоте 2 м над землей.
Te - Эффективная температура - температура, которую ощущает одетый по сезону человек в тени. Характеристика душности погоды. При расчете учитывается влияние влажности воздуха и скорости ветра на теплоощущения человека.
Tes - Эффективная температура на солнце - температура, которую ощущает человек, с поправкой на солнечный нагрев. Характеристика знойности погоды. Зависит от высоты солнца над горизонтом, облачности и скорости ветра. Ночью, в пасмурную погоду, а также при ветре 12 м/с и более поправка равна нулю.
P - Атмосферное давление - приведенное к уровню моря атмосферное давление.
Po - Атмосферное давление - измеренное на уровне метеостанции атмосферное давление.
Tmin - Минимальная температура - минимум температуры воздуха на высоте 2 м над землей.
Tmax - Максимальная температура - максимум температуры воздуха на высоте 2 м над землей.
R - Количество осадков - Количество выпавших осадков за период времени, мм. При наведении курсора мыши на число - период времени, за который выпало указанное количество осадков.
R24 - Количество осадков - Количество выпавших осадков за 24 часа, мм.
S - Снежный покров - Высота снежного покрова, см. При наведении курсора мыши на число - состояние снежного покрова и степень покрытия местности в баллах.